Time,TemperatureF,DewpointF,PressureIn,WindDirection,WindDirectionDegrees,WindSpeedMPH,WindSpeedGustMPH,Humidity,HourlyPrecipIn,Conditions,Clouds,dailyrainin,SolarRadiationWatts/m^2,SoftwareType,DateUTC
2013-01-18 00:00:00,25.5,23.0,30.01,NW,319,0.0,-999.0,89,-99.99,,,0.00,0,weatherlink.com 1.10,2013-01-17 23:00:00,
2013-01-18 00:15:00,25.4,23.0,30.01,NE,40,0.0,-999.0,89,-99.99,,,0.00,0,weatherlink.com 1.10,2013-01-17 23:15:00,
2013-01-18 00:29:00,25.3,23.0,30.01,ENE,67,0.0,-999.0,89,-99.99,,,0.00,0,weatherlink.com 1.10,2013-01-17 23:29:00,
2013-01-18 00:44:00,25.2,22.0,30.01,North,350,0.0,-999.0,89,-99.99,,,0.00,0,weatherlink.com 1.10,2013-01-17 23:44:00,
2013-01-18 00:59:00,25.1,22.0,30.00,East,100,0.0,-999.0,89,-99.99,,,0.00,0,weatherlink.com 1.10,2013-01-17 23:59:00,
2013-01-18 01:14:00,25.0,22.0,30.00,East,88,0.0,-999.0,89,-99.99,,,0.00,0,weatherlink.com 1.10,2013-01-18 00:14:00,
2013-01-18 01:29:00,25.0,23.0,30.00,East,100,1.0,-999.0,90,-99.99,,,0.00,0,weatherlink.com 1.10,2013-01-18 00:29:00,
2013-01-18 01:45:00,24.9,22.0,29.99,East,100,0.0,-999.0,90,-99.99,,,0.00,0,weatherlink.com 1.10,2013-01-18 00:45:00,
2013-01-18 01:59:00,24.8,22.0,29.99,ESE,111,1.0,-999.0,90,-99.99,,,0.00,0,weatherlink.com 1.10,2013-01-18 00:59:00,
2013-01-18 02:14:00,24.7,22.0,29.99,North,8,0.0,-999.0,90,-99.99,,,0.00,0,weatherlink.com 1.10,2013-01-18 01:14:00,
2013-01-18 02:31:00,24.6,22.0,29.99,East,98,0.0,-999.0,90,-99.99,,,0.00,0,weatherlink.com 1.10,2013-01-18 01:31:00,
2013-01-18 02:45:00,24.5,22.0,29.99,ENE,71,0.0,-999.0,90,-99.99,,,0.00,0,weatherlink.com 1.10,2013-01-18 01:45:00,
2013-01-18 03:00:00,24.4,22.0,29.99,ENE,65,0.0,-999.0,90,-99.99,,,0.00,0,weatherlink.com 1.10,2013-01-18 02:00:00,
2013-01-18 03:15:00,24.3,22.0,29.99,NNE,15,0.0,-999.0,90,-99.99,,,0.00,0,weatherlink.com 1.10,2013-01-18 02:15:00,
2013-01-18 03:31:00,24.2,22.0,29.99,NNE,15,0.0,-999.0,90,-99.99,,,0.00,0,weatherlink.com 1.10,2013-01-18 02:31:00,
2013-01-18 03:46:00,24.1,22.0,29.99,ENE,75,0.0,-999.0,90,-99.99,,,0.00,0,weatherlink.com 1.10,2013-01-18 02:46:00,
2013-01-18 03:59:00,24.0,22.0,29.99,East,89,1.0,-999.0,90,-99.99,,,0.00,0,weatherlink.com 1.10,2013-01-18 02:59:00,
2013-01-18 04:15:00,23.9,21.0,29.99,East,91,0.0,-999.0,90,-99.99,,,0.00,0,weatherlink.com 1.10,2013-01-18 03:15:00,
2013-01-18 04:29:00,23.9,21.0,29.99,ENE,70,0.0,-999.0,90,-99.99,,,0.00,0,weatherlink.com 1.10,2013-01-18 03:29:00,
2013-01-18 04:44:00,23.8,21.0,29.99,East,81,1.0,-999.0,90,-99.99,,,0.00,0,weatherlink.com 1.10,2013-01-18 03:44:00,
2013-01-18 04:59:00,23.6,21.0,29.99,East,90,1.0,-999.0,90,-99.99,,,0.00,0,weatherlink.com 1.10,2013-01-18 03:59:00,
2013-01-18 05:16:00,23.2,21.0,29.99,East,96,0.0,-999.0,90,-99.99,,,0.00,0,weatherlink.com 1.10,2013-01-18 04:16:00,
2013-01-18 05:29:00,23.0,23.0,29.99,East,98,0.0,-999.0,98,-99.99,,,0.00,0,weatherlink.com 1.10,2013-01-18 04:29:00,
2013-01-18 05:45:00,22.6,20.0,29.99,East,94,0.0,-999.0,90,-99.99,,,0.00,0,weatherlink.com 1.10,2013-01-18 04:45:00,
2013-01-18 06:15:00,22.3,20.0,29.99,ENE,70,0.0,-999.0,90,-99.99,,,0.00,0,weatherlink.com 1.10,2013-01-18 05:15:00,
2013-01-18 06:29:00,22.1,20.0,29.98,North,350,0.0,-999.0,90,-99.99,,,0.00,0,weatherlink.com 1.10,2013-01-18 05:29:00,
2013-01-18 06:46:00,22.1,20.0,29.98,North,350,0.0,-999.0,90,-99.99,,,0.00,0,weatherlink.com 1.10,2013-01-18 05:46:00,
2013-01-18 07:01:00,22.0,20.0,29.97,SE,125,2.0,-999.0,90,-99.99,,,0.00,0,weatherlink.com 1.10,2013-01-18 06:01:00,
2013-01-18 07:30:00,21.7,19.0,29.97,East,92,0.0,-999.0,90,-99.99,,,0.00,0,weatherlink.com 1.10,2013-01-18 06:30:00,
2013-01-18 07:45:00,21.5,19.0,29.98,East,92,0.0,-999.0,90,-99.99,,,0.00,0,weatherlink.com 1.10,2013-01-18 06:45:00,
2013-01-18 08:01:00,21.3,19.0,29.98,NE,55,0.0,-999.0,90,-99.99,,,0.00,0,weatherlink.com 1.10,2013-01-18 07:01:00,
2013-01-18 08:16:00,21.2,19.0,29.98,NE,55,0.0,-999.0,90,-99.99,,,0.00,0,weatherlink.com 1.10,2013-01-18 07:16:00,
2013-01-18 08:30:00,21.1,19.0,29.98,SE,140,0.0,-999.0,90,-99.99,,,0.00,0,weatherlink.com 1.10,2013-01-18 07:30:00,
2013-01-18 08:45:00,21.1,19.0,29.98,NNE,13,0.0,-999.0,90,-99.99,,,0.00,5,weatherlink.com 1.10,2013-01-18 07:45:00,
2013-01-18 09:00:00,21.1,19.0,29.98,ENE,58,0.0,-999.0,90,-99.99,,,0.00,9,weatherlink.com 1.10,2013-01-18 08:00:00,
2013-01-18 09:14:00,21.1,19.0,29.99,ENE,58,0.0,-999.0,90,-99.99,,,0.00,9,weatherlink.com 1.10,2013-01-18 08:14:00,
2013-01-18 09:29:00,21.2,19.0,29.98,North,354,0.0,-999.0,90,-99.99,,,0.00,9,weatherlink.com 1.10,2013-01-18 08:29:00,
2013-01-18 09:45:00,21.3,19.0,29.98,East,85,0.0,-999.0,90,-99.99,,,0.00,12,weatherlink.com 1.10,2013-01-18 08:45:00,
2013-01-18 09:59:00,21.4,19.0,29.98,East,85,0.0,-999.0,90,-99.99,,,0.00,19,weatherlink.com 1.10,2013-01-18 08:59:00,
2013-01-18 10:16:00,21.7,19.0,29.97,East,86,1.0,-999.0,90,-99.99,,,0.00,33,weatherlink.com 1.10,2013-01-18 09:16:00,
2013-01-18 10:30:00,22.2,20.0,29.97,East,84,0.0,-999.0,90,-99.99,,,0.00,28,weatherlink.com 1.10,2013-01-18 09:30:00,
2013-01-18 10:47:00,22.4,20.0,29.98,ENE,71,0.0,-999.0,90,-99.99,,,0.00,26,weatherlink.com 1.10,2013-01-18 09:47:00,
2013-01-18 11:00:00,22.6,20.0,29.97,ESE,116,0.0,-999.0,90,-99.99,,,0.00,26,weatherlink.com 1.10,2013-01-18 10:00:00,
2013-01-18 11:15:00,22.7,20.0,29.97,NNW,338,0.0,-999.0,90,-99.99,,,0.00,21,weatherlink.com 1.10,2013-01-18 10:15:00,
2013-01-18 11:31:00,22.9,20.0,29.96,ESE,116,0.0,-999.0,90,-99.99,,,0.00,21,weatherlink.com 1.10,2013-01-18 10:31:00,
2013-01-18 11:46:00,23.1,21.0,29.96,ESE,116,0.0,-999.0,90,-99.99,,,0.00,23,weatherlink.com 1.10,2013-01-18 10:46:00,
2013-01-18 12:00:00,23.2,21.0,29.96,ESE,115,0.0,-999.0,89,-99.99,,,0.00,25,weatherlink.com 1.10,2013-01-18 11:00:00,
2013-01-18 12:14:00,23.4,21.0,29.96,ESE,115,0.0,-999.0,89,-99.99,,,0.00,30,weatherlink.com 1.10,2013-01-18 11:14:00,
2013-01-18 12:30:00,23.7,21.0,29.95,ESE,116,0.0,-999.0,89,-99.99,,,0.00,19,weatherlink.com 1.10,2013-01-18 11:30:00,
2013-01-18 12:46:00,23.8,21.0,29.95,ESE,115,0.0,-999.0,89,-99.99,,,0.00,23,weatherlink.com 1.10,2013-01-18 11:46:00,
2013-01-18 12:59:00,23.9,21.0,29.95,ESE,116,1.0,-999.0,89,-99.99,,,0.00,23,weatherlink.com 1.10,2013-01-18 11:59:00,
2013-01-18 13:15:00,24.1,21.0,29.94,NNW,342,1.0,-999.0,88,-99.99,,,0.00,23,weatherlink.com 1.10,2013-01-18 12:15:00,
2013-01-18 13:31:00,24.0,21.0,29.93,ENE,73,0.0,-999.0,88,-99.99,,,0.00,19,weatherlink.com 1.10,2013-01-18 12:31:00,
2013-01-18 13:45:00,24.0,21.0,29.93,North,360,0.0,-999.0,88,-99.99,,,0.00,19,weatherlink.com 1.10,2013-01-18 12:45:00,
2013-01-18 14:01:00,23.9,21.0,29.92,North,360,1.0,-999.0,87,-99.99,,,0.00,18,weatherlink.com 1.10,2013-01-18 13:01:00,
2013-01-18 14:16:00,23.7,20.0,29.91,NNE,23,0.0,-999.0,87,-99.99,,,0.00,19,weatherlink.com 1.10,2013-01-18 13:16:00,
2013-01-18 14:31:00,23.7,20.0,29.91,NNE,19,0.0,-999.0,87,-99.99,,,0.00,19,weatherlink.com 1.10,2013-01-18 13:31:00,
2013-01-18 14:47:00,23.8,21.0,29.91,East,98,1.0,-999.0,87,-99.99,,,0.00,14,weatherlink.com 1.10,2013-01-18 13:47:00,
2013-01-18 15:01:00,23.7,20.0,29.91,East,85,0.0,-999.0,87,-99.99,,,0.00,14,weatherlink.com 1.10,2013-01-18 14:01:00,
2013-01-18 15:14:00,23.6,20.0,29.91,NW,308,0.0,-999.0,86,-99.99,,,0.00,9,weatherlink.com 1.10,2013-01-18 14:14:00,
2013-01-18 15:30:00,23.5,20.0,29.91,East,82,0.0,-999.0,86,-99.99,,,0.00,7,weatherlink.com 1.10,2013-01-18 14:30:00,
2013-01-18 15:46:00,23.3,20.0,29.91,NE,46,0.0,-999.0,86,-99.99,,,0.00,5,weatherlink.com 1.10,2013-01-18 14:46:00,
2013-01-18 16:01:00,23.2,20.0,29.91,NE,46,0.0,-999.0,86,-99.99,,,0.00,0,weatherlink.com 1.10,2013-01-18 15:01:00,
2013-01-18 16:16:00,23.2,20.0,29.90,NE,46,0.0,-999.0,86,-99.99,,,0.00,0,weatherlink.com 1.10,2013-01-18 15:16:00,
2013-01-18 16:31:00,23.1,20.0,29.90,NE,46,0.0,-999.0,86,-99.99,,,0.00,0,weatherlink.com 1.10,2013-01-18 15:31:00,
2013-01-18 16:45:00,23.0,19.0,29.90,NE,46,0.0,-999.0,86,-99.99,,,0.00,0,weatherlink.com 1.10,2013-01-18 15:45:00,
2013-01-18 17:01:00,22.9,19.0,29.90,NE,46,0.0,-999.0,86,-99.99,,,0.00,0,weatherlink.com 1.10,2013-01-18 16:01:00,
2013-01-18 17:16:00,22.8,19.0,29.90,NE,46,0.0,-999.0,86,-99.99,,,0.00,0,weatherlink.com 1.10,2013-01-18 16:16:00,
2013-01-18 17:31:00,22.7,19.0,29.89,ENE,61,0.0,-999.0,86,-99.99,,,0.00,0,weatherlink.com 1.10,2013-01-18 16:31:00,
2013-01-18 17:46:00,22.7,19.0,29.89,NE,40,0.0,-999.0,86,-99.99,,,0.00,0,weatherlink.com 1.10,2013-01-18 16:46:00,
2013-01-18 18:01:00,22.6,19.0,29.89,NE,37,0.0,-999.0,86,-99.99,,,0.00,0,weatherlink.com 1.10,2013-01-18 17:01:00,
2013-01-18 18:15:00,22.6,19.0,29.89,NE,38,0.0,-999.0,86,-99.99,,,0.00,0,weatherlink.com 1.10,2013-01-18 17:15:00,
2013-01-18 18:30:00,22.6,19.0,29.89,NE,38,0.0,-999.0,86,-99.99,,,0.00,0,weatherlink.com 1.10,2013-01-18 17:30:00,
2013-01-18 18:45:00,22.5,19.0,29.89,NE,38,0.0,-999.0,87,-99.99,,,0.00,0,weatherlink.com 1.10,2013-01-18 17:45:00,
2013-01-18 19:01:00,22.5,19.0,29.89,NE,38,0.0,-999.0,87,-99.99,,,0.00,0,weatherlink.com 1.10,2013-01-18 18:01:00,
2013-01-18 19:16:00,22.5,19.0,29.89,North,352,0.0,-999.0,87,-99.99,,,0.00,0,weatherlink.com 1.10,2013-01-18 18:16:00,
2013-01-18 19:31:00,22.5,19.0,29.88,ENE,69,0.0,-999.0,86,-99.99,,,0.00,0,weatherlink.com 1.10,2013-01-18 18:31:00,
2013-01-18 19:45:00,22.4,19.0,29.88,ENE,69,0.0,-999.0,87,-99.99,,,0.00,0,weatherlink.com 1.10,2013-01-18 18:45:00,
2013-01-18 20:00:00,22.4,19.0,29.88,ENE,75,0.0,-999.0,87,-99.99,,,0.00,0,weatherlink.com 1.10,2013-01-18 19:00:00,
2013-01-18 20:15:00,22.3,19.0,29.87,ENE,75,0.0,-999.0,87,-99.99,,,0.00,0,weatherlink.com 1.10,2013-01-18 19:15:00,
2013-01-18 20:31:00,22.2,19.0,29.87,ENE,75,0.0,-999.0,87,-99.99,,,0.00,0,weatherlink.com 1.10,2013-01-18 19:31:00,
2013-01-18 20:46:00,22.2,19.0,29.87,ENE,75,2.0,-999.0,87,-99.99,,,0.00,0,weatherlink.com 1.10,2013-01-18 19:46:00,
2013-01-18 21:00:00,22.1,19.0,29.87,ENE,75,0.0,-999.0,87,-99.99,,,0.00,0,weatherlink.com 1.10,2013-01-18 20:00:00,
2013-01-18 21:15:00,22.1,19.0,29.86,ENE,75,0.0,-999.0,87,-99.99,,,0.00,0,weatherlink.com 1.10,2013-01-18 20:15:00,
2013-01-18 21:31:00,22.0,19.0,29.86,ENE,75,0.0,-999.0,87,-99.99,,,0.00,0,weatherlink.com 1.10,2013-01-18 20:31:00,
2013-01-18 21:45:00,21.9,19.0,29.86,ENE,75,0.0,-999.0,87,-99.99,,,0.00,0,weatherlink.com 1.10,2013-01-18 20:45:00,
2013-01-18 22:01:00,21.8,19.0,29.85,ENE,75,0.0,-999.0,87,-99.99,,,0.00,0,weatherlink.com 1.10,2013-01-18 21:01:00,
2013-01-18 22:16:00,21.8,19.0,29.84,ENE,75,0.0,-999.0,87,-99.99,,,0.00,0,weatherlink.com 1.10,2013-01-18 21:16:00,
2013-01-18 22:30:00,21.7,19.0,29.84,ENE,75,0.0,-999.0,88,-99.99,,,0.00,0,weatherlink.com 1.10,2013-01-18 21:30:00,
2013-01-18 22:45:00,21.7,18.0,29.84,ENE,75,0.0,-999.0,87,-99.99,,,0.00,0,weatherlink.com 1.10,2013-01-18 21:45:00,
2013-01-18 23:01:00,21.7,19.0,29.84,ENE,75,0.0,-999.0,88,-99.99,,,0.00,0,weatherlink.com 1.10,2013-01-18 22:01:00,
2013-01-18 23:16:00,21.6,19.0,29.83,ENE,75,0.0,-999.0,88,-99.99,,,0.00,0,weatherlink.com 1.10,2013-01-18 22:16:00,
2013-01-18 23:30:00,21.6,19.0,29.83,ENE,75,0.0,-999.0,88,-99.99,,,0.00,0,weatherlink.com 1.10,2013-01-18 22:30:00,
2013-01-18 23:46:00,21.6,19.0,29.82,ENE,75,0.0,-999.0,88,-99.99,,,0.00,0,weatherlink.com 1.10,2013-01-18 22:46:00,